Farmville, VA

6:05 AM EST on January 18, 2018 (GMT -0500)
Farmville Regional

Weather History for KFVX - November, 2013

Change the Weather History Date:

Friday, November 15, 2013

  Actual Average Record
Temperature  
Mean Temperature 48 °F -  
Max Temperature 62 °F 60 °F 79 °F (1989)
Min Temperature 33 °F 35 °F 16 °F (1942)
Degree Days  
Heating Degree Days 18    
Moisture  
Dew Point 25 °F    
Average Humidity 41    
Maximum Humidity 94    
Minimum Humidity 16    
Precipitation  
Precipitation 0.02 in - - ()
Sea Level Pressure  
Sea Level Pressure 30.24 in    
Wind  
Wind Speed 5 mph (SSW)    
Max Wind Speed 10 mph    
Max Gust Speed -    
Visibility 10 miles    
Events Rain    
Averages and records for this station are not official NWS values.
T = Trace of Precipitation, MM = Missing Value Source: NWS Daily Summary

Daily Weather History Graph

Daily Weather History Graph

Search for Another Location

Airport or City:

Trip Planner

Search our weather history database for the weather conditions in past years. The results will help you decide how hot, cold, wet, or windy it might be!

Date:

Astronomy

Nov. 15, 2013 Rise Set
Actual Time 6:53 AM EST 5:03 PM EST
Civil Twilight 6:25 AM EST 5:30 PM EST
Nautical Twilight 5:53 AM EST 6:02 PM EST
Astronomical Twilight 5:23 AM EST 6:33 PM EST
Moon 3:57 PM EST (11/15) 4:50 AM EST (11/15)
Length of Visible Light 11h 05m
Length of Day
10h 09m
Waxing Gibbous, 96% of the Moon is Illuminated
Nov 15
Waxing Gibbous
Nov 17
Full
Nov 25
Last Quarter
Dec 2
New
Dec 9
First Quarter

Hourly Weather History & Observations

Time (EST) Temp. Windchill Dew Point Humidity Pressure Visibility Wind Dir Wind Speed Gust Speed Precip Events Conditions
12:15 AM 42.8 °F 39.3 °F 15.8 °F 34% 30.27 in 10.0 mi SSW 5.8 mph - N/A   Clear
12:35 AM 42.8 °F 39.3 °F 15.8 °F 34% 30.26 in 10.0 mi SSW 5.8 mph - N/A   Clear
12:55 AM 41.0 °F 38.0 °F 15.8 °F 36% 30.26 in 10.0 mi SW 4.6 mph - N/A   Clear
1:15 AM 41.0 °F 38.0 °F 17.6 °F 39% 30.26 in 10.0 mi SSW 4.6 mph - N/A   Clear
1:35 AM 39.2 °F 35.0 °F 17.6 °F 42% 30.25 in 10.0 mi SSW 5.8 mph - N/A   Clear
1:55 AM - - - N/A% 30.26 in - SSW 5.8 mph - N/A   Unknown
2:15 AM - - - N/A% - - North - - N/A   Unknown
2:35 AM - - - N/A% - - North - - N/A   Unknown
2:55 AM 37.4 °F 32.8 °F 17.6 °F 45% 30.25 in - South 5.8 mph - N/A   Unknown
3:15 AM - - - N/A% - - North - - N/A   Unknown
3:35 AM 35.6 °F 29.9 °F 19.4 °F 52% 30.24 in 10.0 mi SSW 6.9 mph - N/A   Unknown
3:55 AM 35.6 °F 30.7 °F 19.4 °F 52% 30.24 in 10.0 mi SSW 5.8 mph - N/A   Clear
4:15 AM 35.6 °F 30.7 °F 19.4 °F 52% 30.24 in 10.0 mi South 5.8 mph - N/A   Clear
4:35 AM 37.4 °F 32.8 °F 17.6 °F 45% 30.24 in 10.0 mi SSW 5.8 mph - N/A   Clear
4:55 AM 35.6 °F 31.7 °F 19.4 °F 52% 30.25 in 10.0 mi SSW 4.6 mph - N/A   Unknown
5:15 AM 33.8 °F 28.6 °F 19.4 °F 56% 30.26 in 10.0 mi SSW 5.8 mph - N/A   Clear
5:35 AM 33.8 °F 27.7 °F 19.4 °F 56% 30.25 in 10.0 mi South 6.9 mph - N/A   Clear
5:55 AM 35.6 °F 30.7 °F 19.4 °F 52% 30.25 in 10.0 mi South 5.8 mph - N/A   Clear
6:15 AM 35.6 °F 32.8 °F 19.4 °F 52% 30.25 in 10.0 mi SSW 3.5 mph - N/A   Clear
6:35 AM 33.8 °F 29.6 °F 19.4 °F 56% 30.26 in 10.0 mi SSW 4.6 mph - N/A   Unknown
6:55 AM 35.6 °F 31.7 °F 19.4 °F 52% 30.27 in 10.0 mi SSW 4.6 mph - N/A   Clear
7:15 AM 35.6 °F 31.7 °F 19.4 °F 52% 30.27 in 10.0 mi SSW 4.6 mph - N/A   Clear
7:35 AM 37.4 °F 33.8 °F 19.4 °F 48% 30.29 in 10.0 mi SSW 4.6 mph - N/A   Clear
7:55 AM 39.2 °F 37.0 °F 19.4 °F 45% 30.28 in 10.0 mi SSW 3.5 mph - N/A   Clear
8:15 AM 42.8 °F 40.1 °F 19.4 °F 39% 30.28 in 10.0 mi SSW 4.6 mph - N/A   Clear
8:35 AM 42.8 °F 40.1 °F 19.4 °F 39% 30.29 in 10.0 mi SSW 4.6 mph - N/A   Clear
8:55 AM 44.6 °F 42.2 °F 19.4 °F 37% 30.29 in 10.0 mi SSW 4.6 mph - N/A   Clear
9:15 AM 44.6 °F 42.2 °F 19.4 °F 37% 30.29 in 10.0 mi SSW 4.6 mph - N/A   Clear
9:35 AM 46.4 °F 44.3 °F 19.4 °F 34% 30.30 in 10.0 mi SSW 4.6 mph - N/A   Clear
9:55 AM 50.0 °F - 19.4 °F 30% 30.29 in 10.0 mi South 4.6 mph - N/A   Clear
10:15 AM 53.6 °F - 17.6 °F 24% 30.29 in 10.0 mi South 5.8 mph - N/A   Clear
10:35 AM 55.4 °F - 15.8 °F 21% 30.29 in 10.0 mi South 9.2 mph - N/A   Clear
10:55 AM 55.4 °F - 14.0 °F 20% 30.27 in 10.0 mi SW 6.9 mph - N/A   Clear
11:15 AM 55.4 °F - 15.8 °F 21% 30.27 in 10.0 mi South 5.8 mph - N/A   Clear
11:35 AM 55.4 °F - 14.0 °F 20% 30.26 in 10.0 mi South 9.2 mph - N/A   Clear
11:55 AM 55.4 °F - 14.0 °F 20% 30.25 in 10.0 mi South 8.1 mph - N/A   Clear
12:15 PM 57.2 °F - 14.0 °F 18% 30.25 in 10.0 mi SSW 9.2 mph - N/A   Clear
12:35 PM 57.2 °F - 12.2 °F 17% 30.25 in 10.0 mi SSW 9.2 mph - N/A   Clear
12:55 PM 57.2 °F - 14.0 °F 18% 30.24 in 10.0 mi SSW 8.1 mph - N/A   Clear
1:15 PM 59.0 °F - 12.2 °F 16% 30.22 in 10.0 mi SSW 8.1 mph - N/A   Clear
1:35 PM 59.0 °F - 12.2 °F 16% 30.21 in 10.0 mi SSW 10.4 mph - N/A   Clear
1:55 PM 60.8 °F - 15.8 °F 17% 30.21 in 10.0 mi SSW 4.6 mph - N/A   Clear
2:15 PM 60.8 °F - 19.4 °F 20% 30.21 in 10.0 mi SSW 8.1 mph - N/A   Clear
2:35 PM 60.8 °F - 24.8 °F 25% 30.19 in 10.0 mi SSW 6.9 mph - N/A   Clear
2:55 PM 62.6 °F - 26.6 °F 26% 30.20 in 10.0 mi SSW 8.1 mph - N/A   Scattered Clouds
3:15 PM 62.6 °F - 26.6 °F 26% 30.19 in 10.0 mi SSW 9.2 mph - N/A   Scattered Clouds
3:35 PM 60.8 °F - 26.6 °F 27% 30.20 in 10.0 mi SSW 5.8 mph - N/A   Clear
3:55 PM 60.8 °F - 28.4 °F 29% 30.19 in 10.0 mi SSW 5.8 mph - N/A   Clear
4:15 PM 60.8 °F - 28.4 °F 29% 30.19 in 10.0 mi SSW 5.8 mph - N/A   Clear
4:35 PM 60.8 °F - 30.2 °F 31% 30.20 in 10.0 mi SSW 3.5 mph - N/A   Scattered Clouds
4:55 PM 59.0 °F - 30.2 °F 34% 30.20 in 10.0 mi South 4.6 mph - N/A   Mostly Cloudy
5:15 PM 57.2 °F - 32.0 °F 38% 30.19 in 10.0 mi Calm Calm - N/A   Overcast
5:35 PM 57.2 °F - 30.2 °F 36% 30.20 in 10.0 mi Calm Calm - N/A   Overcast
5:55 PM 57.2 °F - 32.0 °F 38% 30.20 in 10.0 mi Calm Calm - N/A   Overcast
6:15 PM 57.2 °F - 33.8 °F 41% 30.20 in 10.0 mi Calm Calm - N/A   Overcast
6:35 PM 57.2 °F - 32.0 °F 38% 30.20 in 10.0 mi Calm Calm - N/A   Mostly Cloudy
6:55 PM 57.2 °F - 32.0 °F 38% 30.21 in 10.0 mi Calm Calm - N/A   Overcast
7:15 PM 57.2 °F - 33.8 °F 41% 30.21 in 10.0 mi Calm Calm - N/A   Overcast
7:35 PM 53.6 °F - 33.8 °F 47% 30.21 in 10.0 mi Calm Calm - N/A   Mostly Cloudy
7:55 PM 55.4 °F - 33.8 °F 44% 30.21 in 10.0 mi Calm Calm - N/A   Mostly Cloudy
8:15 PM 55.4 °F - 35.6 °F 47% 30.20 in 10.0 mi Calm Calm - N/A   Scattered Clouds
8:35 PM 55.4 °F - 35.6 °F 47% 30.21 in 10.0 mi Calm Calm - N/A   Scattered Clouds
8:55 PM 55.4 °F - 35.6 °F 47% 30.21 in 10.0 mi Calm Calm - N/A   Mostly Cloudy
9:15 PM 55.4 °F - 35.6 °F 47% 30.21 in 10.0 mi Calm Calm - N/A   Overcast
9:35 PM 55.4 °F - 37.4 °F 51% 30.22 in 10.0 mi West 3.5 mph - N/A Rain Light Rain
9:55 PM 55.4 °F - 41.0 °F 58% 30.23 in 10.0 mi Calm Calm - N/A Rain Light Rain
10:15 PM 55.4 °F - 42.8 °F 63% 30.23 in 10.0 mi Calm Calm - N/A   Drizzle
10:35 PM 51.8 °F - 48.2 °F 88% 30.23 in 10.0 mi Calm Calm - N/A Rain Light Rain
10:55 PM 51.8 °F - 48.2 °F 88% 30.23 in 10.0 mi Calm Calm - N/A   Drizzle
11:15 PM 51.8 °F - 48.2 °F 88% 30.24 in 10.0 mi Calm Calm - 0.02 in Rain Light Rain
11:35 PM 51.8 °F - 50.0 °F 94% 30.24 in 7.0 mi Calm Calm - 0.02 in Rain Light Rain
11:55 PM 51.8 °F - 50.0 °F 94% 30.24 in 7.0 mi Calm Calm - 0.01 in Rain Light Rain